Location: Newark
(13.9174°N, 1.2431°E)
Time: 11:35:49
(UTC+00:00)

N. Korean satellite - Visible Passes

Search period start: 16 October 2019 00:00
Search period end: 26 October 2019 00:00
Orbit: 455 x 508 km, 97.2° (Epoch: 15 October)

Date Brightness Start Highest point End Pass type
(mag) Time Alt. Az. Time Alt. Az. Time Alt. Az.
16 Oct 9.1 05:05:27 10° NE 05:08:36 27° E 05:11:45 10° SSE visible
17 Oct 10.4 04:42:08 10° E 04:43:19 11° E 04:44:30 10° ESE visible
17 Oct 10.2 18:09:27 10° SW 18:11:13 14° W 18:12:59 10° WNW visible
20 Oct 9.6 04:57:59 10° NE 05:00:49 21° E 05:03:41 10° SSE visible
21 Oct 9.9 18:01:01 10° SW 18:03:23 18° W 18:05:46 10° NW visible
23 Oct 8.3 05:14:49 10° NNE 05:18:18 40° E 05:21:48 10° S visible
24 Oct 10.0 04:50:37 10° ENE 04:53:01 16° E 04:55:25 10° SE visible
25 Oct 9.4 17:52:44 10° SSW 17:55:30 23° W 17:58:18 10° NW visible
